Regional Weather Roundup
Issued by NWS Cleveland, OH

Home | Current Version | Previous Version | Text Only | Print | Product List | Glossary On
Versions: 1 2 3 4 5 6 7 8 9 10 11 12 13 14 15 16 17 18 19 20 21 22 23 24 25 26 27 28 29 30 31 32 33 34 35 36 37 38 39 40 41 42 43 44 45 46 47 48 49 50
000
ASUS41 KCLE 200012
RWRCLE
OHIO REGIONAL WEATHER ROUNDUP
NATIONAL WEATHER SERVICE WILMINGTON, OH
700 PM EST FRI JAN 19 2018

NOTE: "FAIR" INDICATES FEW OR NO CLOUDS BELOW 12,000 FEET WITH NO
SIGNIFICANT WEATHER AND/OR OBSTRUCTIONS TO VISIBILITY.

OHZ001>008-015>018-024>027-034-035-043-044-200100-
   NORTHWEST OHIO

CITY           SKY/WX    TMP DP  RH WIND       PRES   REMARKS
DEFIANCE       FAIR      32  21  64 S16G24    29.88S WCI  21
FINDLAY        FAIR      34  21  59 S18       29.91S WCI  23
TOLEDO EXPRESS FAIR      34  24  67 SW16G26   29.86F WCI  24
TOLEDO EXEC    FAIR      34  23  64 S14G23    29.87F WCI  25
LIMA           FAIR      34  22  61 S14       29.92S WCI  25
$$

OHZ009>014-019>023-028>033-038-089-200100-
   NORTHEAST OHIO

CITY           SKY/WX    TMP DP  RH WIND       PRES   REMARKS
CLE-HOPKINS    FAIR      36  19  50 S20G25    29.94S
CLE-LAKEFRONT  FAIR      37  19  48 S20G32    29.90F
CUY CO. ARPT   MOCLDY    37  19  48 SW17G28   29.90F
LORAIN-ELYRIA  FAIR      36  17  46 SW20G28   29.91F
ASHTABULA      FAIR      34  18  52 S20G28    29.91F WCI  23
AKRON-CANTON   FAIR      34  18  52 SW17      29.96S WCI  23
WOOSTER        FAIR      33  18  53 SW12      29.97R WCI  24
MANSFIELD      FAIR      32  19  58 S18       29.95R WCI  20
YOUNGSTOWN     FAIR      35  18  49 SW10      29.95S WCI  27
$$

OHZ042-051>053-060>062-070>072-077>081-200100-
  SOUTHWEST OHIO

CITY           SKY/WX    TMP DP  RH WIND       PRES   REMARKS
CINC-COVINGTON FAIR      36  21  54 S14       30.04S
CINC-LUNKEN    FAIR      37  22  54 S13       30.07F
HAMILTON       FAIR      37  20  50 S6        30.05F
DAYTON         FAIR      35  21  56 S16       29.99S WCI  25
WRIGHT-PAT AFB PTCLDY    35  10  35 S16       30.00F WCI  25
DAYTON GENERAL FAIR      36  19  50 S14       30.01S
WILMINGTON     FAIR      32  19  58 S13       30.02F WCI  22
$$

OHZ036-037-039>041-045>050-054>059-063>069-073>076-082>088-200100-
  CENTRAL AND SOUTHEAST OHIO

CITY           SKY/WX    TMP DP  RH WIND       PRES   REMARKS
COLUMBUS       FAIR      34  19  54 S10       30.03S WCI  26
OSU AIRPORT    FAIR      32  20  61 S9        30.00F WCI  24
BOLTON FIELD   CLEAR     32  19  59 S10       30.02F WCI  24
RICKENBACK AFB FAIR      32  19  57 S10       30.03F WCI  24
NEWARK         FAIR      35  18  49 S8        30.02S WCI  29
MARION         FAIR      31  19  61 S17       29.97S WCI  19
LANCASTER      FAIR      35  18  49 S9        30.04S WCI  28
ZANESVILLE     FAIR      34  17  50 S8        30.04S WCI  27
NEW PHILLY     FAIR      35  17  47 S6        30.02S
$$



USA.gov is the U.S. government's official web portal to all federal, state and local government web resources and services.